MSR913 OMDB-HECA

Flight info

Callsign MSR913
Flight time 3h 10m
Altitude 40000
Route SENPA N571 ALPOB L768 VATIM L550 NOVPA N697 MENLI L677 CVO
Aircraft B789/H-SDE1E2E3FGHIJ2J3J4J5M1RWXY/LB1D1

Departure

Time 2026-05-07 16:52
Airport Dubai International Airport (OMDB)

Arrival

Time 2026-05-07 20:02
Airport Cairo International Airport (HECA)
Time Latitude Longitude Altitude Speed Heading
2026-05-07 16:35 25.25721 55.34816 28 ft 0 kts 260°
2026-05-07 16:39 25.25725 55.34840 26 ft 4 kts 260°
2026-05-07 16:39 25.25730 55.34869 24 ft 4 kts 260°
2026-05-07 16:39 25.25733 55.34894 26 ft 4 kts 256°
2026-05-07 16:40 25.25742 55.34917 25 ft 4 kts 222°
2026-05-07 16:40 25.25754 55.34925 24 ft 4 kts 167°
2026-05-07 16:40 25.25770 55.34913 25 ft 4 kts 123°
2026-05-07 16:40 25.25784 55.34888 26 ft 4 kts 121°
2026-05-07 16:41 25.25789 55.34880 27 ft 0 kts 121°
2026-05-07 16:42 25.25788 55.34882 27 ft 1 kts 121°
2026-05-07 16:42 25.25778 55.34899 27 ft 5 kts 125°
2026-05-07 16:43 25.25751 55.34942 24 ft 8 kts 121°
2026-05-07 16:43 25.25758 55.35000 32 ft 8 kts 48°
2026-05-07 16:43 25.25817 55.35048 23 ft 16 kts 31°
2026-05-07 16:43 25.25925 55.35120 14 ft 17 kts 31°
2026-05-07 16:44 25.26027 55.35188 14 ft 17 kts 31°
2026-05-07 16:44 25.26114 55.35270 12 ft 16 kts 75°
2026-05-07 16:44 25.26073 55.35374 11 ft 16 kts 121°
2026-05-07 16:44 25.26010 55.35487 8 ft 18 kts 121°
2026-05-07 16:45 25.25949 55.35600 9 ft 17 kts 120°
2026-05-07 16:45 25.25886 55.35715 8 ft 17 kts 123°
2026-05-07 16:45 25.25820 55.35830 9 ft 17 kts 122°
2026-05-07 16:45 25.25758 55.35941 10 ft 17 kts 121°
2026-05-07 16:46 25.25696 55.36055 12 ft 17 kts 121°
2026-05-07 16:46 25.25637 55.36162 15 ft 16 kts 121°
2026-05-07 16:46 25.25580 55.36266 15 ft 17 kts 121°
2026-05-07 16:46 25.25518 55.36380 14 ft 18 kts 122°
2026-05-07 16:47 25.25451 55.36497 15 ft 18 kts 122°
2026-05-07 16:47 25.25381 55.36621 13 ft 20 kts 121°
2026-05-07 16:47 25.25320 55.36733 15 ft 17 kts 122°
2026-05-07 16:47 25.25260 55.36839 18 ft 17 kts 121°
2026-05-07 16:48 25.25201 55.36948 18 ft 16 kts 120°
2026-05-07 16:48 25.25146 55.37049 25 ft 14 kts 123°
2026-05-07 16:48 25.25093 55.37141 29 ft 15 kts 121°
2026-05-07 16:48 25.25035 55.37249 27 ft 18 kts 120°
2026-05-07 16:49 25.24972 55.37364 30 ft 18 kts 122°
2026-05-07 16:49 25.24904 55.37483 30 ft 19 kts 121°
2026-05-07 16:49 25.24832 55.37614 29 ft 19 kts 121°
2026-05-07 16:49 25.24765 55.37738 31 ft 19 kts 121°
2026-05-07 16:50 25.24698 55.37859 30 ft 18 kts 121°
2026-05-07 16:50 25.24674 55.37942 33 ft 7 kts 68°
2026-05-07 16:50 25.24718 55.37988 36 ft 13 kts 36°
2026-05-07 16:50 25.24799 55.38017 39 ft 11 kts 334°
2026-05-07 16:51 25.24864 55.37913 38 ft 30 kts 301°
2026-05-07 16:51 25.25085 55.37518 38 ft 91 kts 301°
2026-05-07 16:51 25.25518 55.36743 27 ft 147 kts 302°
2026-05-07 16:51 25.26130 55.35645 178 ft 180 kts 304°
2026-05-07 16:52 25.26781 55.34467 928 ft 180 kts 301°
2026-05-07 16:52 25.27419 55.33301 1839 ft 175 kts 299°
2026-05-07 16:52 25.28069 55.32126 2656 ft 183 kts 300°
2026-05-07 16:52 25.28752 55.30906 3519 ft 190 kts 300°
2026-05-07 16:53 25.29443 55.29636 4332 ft 198 kts 295°
2026-05-07 16:53 25.29716 55.28042 4821 ft 222 kts 268°
2026-05-07 16:53 25.29783 55.26395 6045 ft 209 kts 275°
2026-05-07 16:53 25.29920 55.24764 6939 ft 217 kts 276°
2026-05-07 16:54 25.30063 55.23069 7672 ft 233 kts 275°
2026-05-07 16:54 25.30213 55.21186 8236 ft 255 kts 275°
2026-05-07 16:54 25.30364 55.19257 9286 ft 255 kts 276°
2026-05-07 16:54 25.30334 55.17242 10047 ft 270 kts 263°
2026-05-07 16:55 25.30145 55.15080 10482 ft 296 kts 266°
2026-05-07 16:55 25.29987 55.12742 10899 ft 322 kts 265°
2026-05-07 16:55 25.29798 55.10165 11272 ft 348 kts 265°
2026-05-07 16:55 25.29578 55.07410 11678 ft 369 kts 265°
2026-05-07 16:56 25.29356 55.04584 12649 ft 371 kts 265°
2026-05-07 16:56 25.29138 55.01719 13526 ft 377 kts 264°
2026-05-07 16:56 25.28686 54.95878 15166 ft 387 kts 264°
2026-05-07 16:57 25.28586 54.92880 15911 ft 393 kts 269°
2026-05-07 16:57 25.28494 54.89842 16692 ft 398 kts 266°
2026-05-07 16:57 25.28357 54.86769 17409 ft 404 kts 267°
2026-05-07 16:57 25.28262 54.83655 18143 ft 409 kts 267°
2026-05-07 16:58 25.28191 54.80497 18822 ft 412 kts 268°
2026-05-07 16:58 25.28103 54.77318 19574 ft 414 kts 267°
2026-05-07 16:58 25.28203 54.74137 20260 ft 417 kts 279°
2026-05-07 16:58 25.28905 54.71023 20915 ft 420 kts 284°
2026-05-07 16:59 25.29702 54.67900 21601 ft 422 kts 284°
2026-05-07 16:59 25.30508 54.64828 22291 ft 424 kts 285°
2026-05-07 16:59 25.31303 54.61681 22861 ft 428 kts 284°
2026-05-07 16:59 25.32090 54.58501 23494 ft 429 kts 284°
2026-05-07 17:00 25.32892 54.55308 23952 ft 433 kts 284°
2026-05-07 17:00 25.33748 54.52115 24479 ft 433 kts 286°
2026-05-07 17:00 25.34626 54.48917 24958 ft 436 kts 284°
2026-05-07 17:00 25.35467 54.45681 25480 ft 437 kts 284°
2026-05-07 17:01 25.36330 54.42450 25984 ft 438 kts 285°
2026-05-07 17:01 25.37218 54.39215 26488 ft 440 kts 285°
2026-05-07 17:01 25.38101 54.35969 26982 ft 441 kts 284°
2026-05-07 17:01 25.38961 54.32750 27466 ft 443 kts 284°
2026-05-07 17:02 25.39839 54.29470 27944 ft 445 kts 284°
2026-05-07 17:02 25.40676 54.26163 28380 ft 446 kts 283°
2026-05-07 17:02 25.41505 54.22841 28837 ft 448 kts 283°
2026-05-07 17:02 25.42357 54.19521 29290 ft 450 kts 283°
2026-05-07 17:03 25.43191 54.16182 29742 ft 451 kts 283°
2026-05-07 17:03 25.44011 54.12828 30183 ft 452 kts 283°
2026-05-07 17:03 25.44841 54.09469 30522 ft 454 kts 283°
2026-05-07 17:03 25.45666 54.06096 30850 ft 455 kts 282°
2026-05-07 17:04 25.46465 54.02744 31172 ft 457 kts 282°
2026-05-07 17:04 25.47279 53.99330 31500 ft 459 kts 282°
2026-05-07 17:04 25.48105 53.95910 31819 ft 461 kts 282°
2026-05-07 17:04 25.48935 53.92476 32117 ft 463 kts 282°
2026-05-07 17:05 25.49762 53.89023 32411 ft 464 kts 282°
2026-05-07 17:05 25.50588 53.85564 32709 ft 466 kts 282°
2026-05-07 17:05 25.51419 53.82095 33029 ft 467 kts 282°
2026-05-07 17:05 25.52252 53.78622 33478 ft 465 kts 282°
2026-05-07 17:06 25.53077 53.75169 33899 ft 463 kts 282°
2026-05-07 17:06 25.53899 53.71729 34272 ft 461 kts 282°
2026-05-07 17:06 25.54721 53.68297 34620 ft 461 kts 282°
2026-05-07 17:06 25.55540 53.64879 35071 ft 457 kts 282°
2026-05-07 17:07 25.56351 53.61484 35473 ft 455 kts 282°
2026-05-07 17:07 25.57158 53.58096 35801 ft 455 kts 282°
2026-05-07 17:07 25.57964 53.54713 36119 ft 454 kts 282°
2026-05-07 17:07 25.58759 53.51375 36441 ft 453 kts 282°
2026-05-07 17:08 25.59561 53.48004 36761 ft 453 kts 282°
2026-05-07 17:08 25.60362 53.44631 37082 ft 452 kts 282°
2026-05-07 17:08 25.61159 53.41270 37391 ft 451 kts 282°
2026-05-07 17:08 25.61955 53.37910 37694 ft 451 kts 282°
2026-05-07 17:09 25.62747 53.34554 38002 ft 450 kts 282°
2026-05-07 17:09 25.63537 53.31201 38316 ft 449 kts 282°
2026-05-07 17:09 25.64329 53.27844 38583 ft 449 kts 282°
2026-05-07 17:09 25.65117 53.24500 38804 ft 449 kts 281°
2026-05-07 17:10 25.65904 53.21152 39010 ft 449 kts 281°
2026-05-07 17:10 25.66693 53.17791 39258 ft 448 kts 281°
2026-05-07 17:10 25.67477 53.14454 39507 ft 447 kts 281°
2026-05-07 17:10 25.68259 53.11112 39654 ft 449 kts 281°
2026-05-07 17:11 25.69033 53.07805 39793 ft 450 kts 281°
2026-05-07 17:11 25.69822 53.04432 39834 ft 453 kts 281°
2026-05-07 17:11 25.72213 52.97925 39848 ft 459 kts 293°
2026-05-07 17:12 25.74675 52.92706 39833 ft 458 kts 293°
2026-05-07 17:12 25.77630 52.86453 39828 ft 457 kts 293°
2026-05-07 17:13 25.80579 52.80201 39834 ft 457 kts 293°
2026-05-07 17:13 25.83525 52.73948 39835 ft 457 kts 293°
2026-05-07 17:14 25.86478 52.67670 39837 ft 459 kts 293°
2026-05-07 17:14 25.89415 52.61418 39844 ft 460 kts 293°
2026-05-07 17:15 25.92236 52.55054 39846 ft 458 kts 292°
2026-05-07 17:15 25.95063 52.48701 39855 ft 458 kts 291°
2026-05-07 17:16 25.97853 52.42339 39845 ft 456 kts 291°
2026-05-07 17:16 26.00637 52.36067 39843 ft 456 kts 291°
2026-05-07 17:17 26.03464 52.29766 39840 ft 455 kts 291°
2026-05-07 17:17 26.06273 52.23446 39840 ft 457 kts 291°
2026-05-07 17:18 26.09109 52.17086 39850 ft 459 kts 291°
2026-05-07 17:18 26.11928 52.10744 39849 ft 455 kts 291°
2026-05-07 17:19 26.14730 52.04428 39845 ft 454 kts 291°
2026-05-07 17:19 26.17531 51.98110 39845 ft 456 kts 291°
2026-05-07 17:20 26.20384 51.91827 39849 ft 458 kts 291°
2026-05-07 17:20 26.23166 51.85446 39850 ft 458 kts 290°
2026-05-07 17:21 26.25976 51.79097 39835 ft 455 kts 291°
2026-05-07 17:21 26.28796 51.72791 39839 ft 454 kts 290°
2026-05-07 17:22 26.31607 51.66466 39836 ft 455 kts 290°
2026-05-07 17:22 26.34429 51.60143 39845 ft 456 kts 291°
2026-05-07 17:23 26.37252 51.53801 39853 ft 456 kts 290°
2026-05-07 17:23 26.39494 51.47263 39855 ft 449 kts 284°
2026-05-07 17:24 26.41599 51.40715 39852 ft 448 kts 284°
2026-05-07 17:24 26.43673 51.34196 39860 ft 449 kts 284°
2026-05-07 17:25 26.45776 51.27635 39853 ft 449 kts 284°
2026-05-07 17:25 26.47874 51.21053 39858 ft 449 kts 284°
2026-05-07 17:26 26.49970 51.14480 39863 ft 449 kts 284°
2026-05-07 17:26 26.52040 51.07970 39854 ft 446 kts 284°
2026-05-07 17:27 26.54118 51.01421 39857 ft 447 kts 284°
2026-05-07 17:27 26.56200 50.94851 39861 ft 448 kts 283°
2026-05-07 17:28 26.58259 50.88316 39858 ft 449 kts 283°
2026-05-07 17:28 26.60295 50.81706 39858 ft 450 kts 283°
2026-05-07 17:29 26.62350 50.75099 39862 ft 448 kts 283°
2026-05-07 17:29 26.64374 50.68536 39857 ft 445 kts 283°
2026-05-07 17:30 26.66309 50.62005 39854 ft 445 kts 282°
2026-05-07 17:30 26.68260 50.55412 39857 ft 448 kts 282°
2026-05-07 17:31 26.70222 50.48792 39866 ft 448 kts 281°
2026-05-07 17:31 26.71942 50.42135 39870 ft 446 kts 280°
2026-05-07 17:32 26.73665 50.35470 39873 ft 445 kts 280°
2026-05-07 17:32 26.75371 50.28811 39869 ft 444 kts 280°
2026-05-07 17:33 26.77267 50.22277 39879 ft 446 kts 282°
2026-05-07 17:33 26.79230 50.15673 39874 ft 449 kts 282°
2026-05-07 17:34 26.81210 50.09037 39880 ft 449 kts 282°
2026-05-07 17:34 26.83177 50.02414 39891 ft 448 kts 282°
2026-05-07 17:35 26.85138 49.95810 39867 ft 446 kts 282°
2026-05-07 17:35 26.87090 49.89220 39869 ft 445 kts 282°
2026-05-07 17:36 26.89036 49.82637 39864 ft 445 kts 282°
2026-05-07 17:36 26.90977 49.76060 39866 ft 444 kts 282°
2026-05-07 17:37 26.92904 49.69517 39867 ft 444 kts 282°
2026-05-07 17:37 26.94838 49.62941 39876 ft 443 kts 281°
2026-05-07 17:38 26.96761 49.56383 39875 ft 442 kts 281°
2026-05-07 17:38 26.98683 49.49819 39881 ft 443 kts 281°
2026-05-07 17:39 27.00602 49.43263 39891 ft 442 kts 282°
2026-05-07 17:39 27.03335 49.36983 39887 ft 453 kts 291°
2026-05-07 17:40 27.06415 49.30852 39895 ft 453 kts 291°
2026-05-07 17:40 27.09518 49.24688 39899 ft 454 kts 291°
2026-05-07 17:41 27.12623 49.18504 39900 ft 455 kts 291°
2026-05-07 17:41 27.15732 49.12305 39904 ft 455 kts 291°
2026-05-07 17:42 27.18838 49.06103 39911 ft 455 kts 291°
2026-05-07 17:42 27.21911 48.99960 39905 ft 453 kts 291°
2026-05-07 17:43 27.24993 48.93783 39902 ft 452 kts 291°
2026-05-07 17:43 27.28062 48.87622 39900 ft 451 kts 291°
2026-05-07 17:44 27.31123 48.81471 39904 ft 452 kts 291°
2026-05-07 17:44 27.34194 48.75290 39919 ft 451 kts 291°
2026-05-07 17:45 27.37255 48.69120 39922 ft 451 kts 291°
2026-05-07 17:45 27.40295 48.62983 39929 ft 451 kts 291°
2026-05-07 17:46 27.43358 48.56790 39936 ft 454 kts 291°
2026-05-07 17:46 27.46424 48.50587 39928 ft 452 kts 290°
2026-05-07 17:47 27.49471 48.44411 39929 ft 449 kts 290°
2026-05-07 17:47 27.52507 48.38241 39935 ft 452 kts 290°
2026-05-07 17:48 27.55557 48.32044 39940 ft 452 kts 290°
2026-05-07 17:48 27.58591 48.25867 39948 ft 453 kts 290°
2026-05-07 17:49 27.61639 48.19675 39939 ft 451 kts 290°
2026-05-07 17:49 27.64678 48.13475 39941 ft 452 kts 290°
2026-05-07 17:50 27.67725 48.07265 39939 ft 452 kts 290°
2026-05-07 17:50 27.70766 48.01046 39958 ft 452 kts 290°
2026-05-07 17:51 27.73781 47.94857 39943 ft 452 kts 290°
2026-05-07 17:51 27.76801 47.88654 39937 ft 450 kts 290°
2026-05-07 17:52 27.79806 47.82467 39937 ft 450 kts 290°
2026-05-07 17:52 27.82823 47.76253 39948 ft 451 kts 289°
2026-05-07 17:53 27.85320 47.69865 39950 ft 439 kts 281°
2026-05-07 17:53 27.87351 47.63343 39946 ft 439 kts 281°
2026-05-07 17:54 27.89371 47.56830 39941 ft 439 kts 281°
2026-05-07 17:54 27.91390 47.50313 39942 ft 439 kts 281°
2026-05-07 17:55 27.93388 47.43849 39940 ft 438 kts 281°
2026-05-07 17:55 27.95405 47.37311 39945 ft 438 kts 280°
2026-05-07 17:56 27.97411 47.30793 39940 ft 439 kts 280°
2026-05-07 17:56 27.99411 47.24289 39940 ft 440 kts 280°
2026-05-07 17:57 28.01085 47.18836 39952 ft 441 kts 280°
2026-05-07 17:57 28.03430 47.11180 39961 ft 439 kts 280°
2026-05-07 17:58 28.05422 47.04664 39950 ft 436 kts 279°
2026-05-07 17:58 28.07403 46.98163 39946 ft 437 kts 279°
2026-05-07 17:59 28.09390 46.91642 39956 ft 437 kts 279°
2026-05-07 17:59 28.11088 46.86245 39961 ft 438 kts 281°
2026-05-07 18:00 28.13249 46.79774 39970 ft 439 kts 281°
2026-05-07 18:00 28.15403 46.73310 39965 ft 438 kts 281°
2026-05-07 18:01 28.17546 46.66871 39963 ft 436 kts 281°
2026-05-07 18:01 28.19685 46.60423 39965 ft 437 kts 281°
2026-05-07 18:02 28.22898 46.50728 39965 ft 437 kts 281°
2026-05-07 18:03 28.25029 46.44283 39979 ft 436 kts 281°
2026-05-07 18:03 28.27138 46.37890 39980 ft 436 kts 281°
2026-05-07 18:04 28.29266 46.31426 39993 ft 438 kts 281°
2026-05-07 18:04 28.31399 46.24939 40001 ft 439 kts 281°
2026-05-07 18:05 28.33533 46.18439 39996 ft 439 kts 281°
2026-05-07 18:05 28.35652 46.11977 39996 ft 435 kts 281°
2026-05-07 18:06 28.38022 46.05597 40003 ft 439 kts 282°
2026-05-07 18:06 28.40387 45.99224 39997 ft 441 kts 283°
2026-05-07 18:07 28.42780 45.92803 39990 ft 440 kts 282°
2026-05-07 18:07 28.45153 45.86395 39975 ft 440 kts 282°
2026-05-07 18:08 28.47525 45.79995 39972 ft 439 kts 282°
2026-05-07 18:08 28.49894 45.73584 39967 ft 440 kts 282°
2026-05-07 18:09 28.52262 45.67169 39973 ft 440 kts 282°
2026-05-07 18:09 28.54626 45.60753 39973 ft 440 kts 282°
2026-05-07 18:10 28.56978 45.54359 39973 ft 441 kts 282°
2026-05-07 18:10 28.59351 45.47897 39975 ft 442 kts 282°
2026-05-07 18:11 28.61716 45.41448 39973 ft 440 kts 282°
2026-05-07 18:11 28.64066 45.35025 39968 ft 438 kts 281°
2026-05-07 18:12 28.66402 45.28629 39967 ft 437 kts 281°
2026-05-07 18:12 28.68720 45.22266 39969 ft 438 kts 281°
2026-05-07 18:13 28.71056 45.15853 39971 ft 439 kts 281°
2026-05-07 18:13 28.73400 45.09404 39974 ft 439 kts 281°
2026-05-07 18:14 28.75718 45.03019 39978 ft 434 kts 281°
2026-05-07 18:14 28.78020 44.96649 39964 ft 435 kts 281°
2026-05-07 18:15 28.80332 44.90263 39964 ft 435 kts 281°
2026-05-07 18:15 28.82635 44.83877 39965 ft 435 kts 281°
2026-05-07 18:16 28.84903 44.77542 39968 ft 431 kts 278°
2026-05-07 18:16 28.86271 44.71033 39987 ft 415 kts 266°
2026-05-07 18:17 28.86810 44.64484 39975 ft 415 kts 266°
2026-05-07 18:17 28.87338 44.57919 39977 ft 418 kts 266°
2026-05-07 18:18 28.87862 44.51331 39983 ft 419 kts 266°
2026-05-07 18:18 28.88386 44.44740 39967 ft 415 kts 266°
2026-05-07 18:19 28.88897 44.38174 39979 ft 418 kts 266°
2026-05-07 18:19 28.89419 44.31538 39981 ft 420 kts 266°
2026-05-07 18:20 28.89933 44.24912 39982 ft 419 kts 266°
2026-05-07 18:20 28.90443 44.18280 39980 ft 420 kts 266°
2026-05-07 18:21 28.90955 44.11621 39978 ft 421 kts 266°
2026-05-07 18:21 28.91458 44.05004 39978 ft 421 kts 266°
2026-05-07 18:22 28.91963 43.98324 39976 ft 423 kts 266°
2026-05-07 18:22 28.92467 43.91629 39977 ft 423 kts 266°
2026-05-07 18:23 28.92966 43.84946 39975 ft 420 kts 266°
2026-05-07 18:23 28.93457 43.78307 39979 ft 420 kts 266°
2026-05-07 18:24 28.93946 43.71673 39975 ft 421 kts 266°
2026-05-07 18:24 28.94434 43.65004 39980 ft 422 kts 266°
2026-05-07 18:25 28.94919 43.58317 39976 ft 423 kts 266°
2026-05-07 18:25 28.95403 43.51630 39974 ft 422 kts 266°
2026-05-07 18:26 28.95881 43.44954 39973 ft 421 kts 266°
2026-05-07 18:26 28.96353 43.38310 39984 ft 423 kts 266°
2026-05-07 18:27 28.96827 43.31609 39988 ft 423 kts 266°
2026-05-07 18:27 28.97296 43.24910 39989 ft 423 kts 266°
2026-05-07 18:28 28.97763 43.18203 39987 ft 424 kts 266°
2026-05-07 18:28 28.98228 43.11481 39995 ft 425 kts 266°
2026-05-07 18:29 28.98690 43.04752 39998 ft 425 kts 266°
2026-05-07 18:29 28.99145 42.98056 39995 ft 426 kts 265°
2026-05-07 18:30 28.99603 42.91294 39991 ft 426 kts 265°
2026-05-07 18:30 29.00056 42.84541 40003 ft 426 kts 265°
2026-05-07 18:31 29.00505 42.77802 40002 ft 425 kts 265°
2026-05-07 18:31 29.00950 42.71068 40000 ft 424 kts 265°
2026-05-07 18:32 29.01391 42.64349 40000 ft 424 kts 265°
2026-05-07 18:32 29.01824 42.57674 39977 ft 426 kts 265°
2026-05-07 18:33 29.02262 42.50902 39998 ft 428 kts 265°
2026-05-07 18:33 29.02698 42.44112 39997 ft 428 kts 265°
2026-05-07 18:34 29.03129 42.37312 40007 ft 430 kts 265°
2026-05-07 18:34 29.03560 42.30495 40013 ft 430 kts 265°
2026-05-07 18:35 29.03984 42.23723 40014 ft 429 kts 265°
2026-05-07 18:35 29.04406 42.16907 40011 ft 430 kts 265°
2026-05-07 18:36 29.04826 42.10085 40011 ft 430 kts 265°
2026-05-07 18:36 29.05241 42.03277 40010 ft 429 kts 265°
2026-05-07 18:37 29.05652 41.96473 40023 ft 430 kts 265°
2026-05-07 18:37 29.06061 41.89669 39998 ft 428 kts 265°
2026-05-07 18:38 29.06459 41.82885 40013 ft 428 kts 265°
2026-05-07 18:38 29.06858 41.76088 40029 ft 429 kts 265°
2026-05-07 18:39 29.07254 41.69287 40022 ft 428 kts 265°
2026-05-07 18:39 29.07644 41.62498 40021 ft 427 kts 265°
2026-05-07 18:40 29.08030 41.55724 40057 ft 427 kts 265°
2026-05-07 18:40 29.08413 41.48949 40027 ft 431 kts 265°
2026-05-07 18:41 29.08798 41.42093 40031 ft 431 kts 265°
2026-05-07 18:41 29.09183 41.35236 40029 ft 431 kts 265°
2026-05-07 18:42 29.09563 41.28375 40032 ft 433 kts 265°
2026-05-07 18:42 29.09941 41.21519 40005 ft 432 kts 265°
2026-05-07 18:43 29.10315 41.14665 40016 ft 430 kts 265°
2026-05-07 18:43 29.10680 41.07851 40035 ft 434 kts 265°
2026-05-07 18:44 29.11052 41.00947 40034 ft 435 kts 265°
2026-05-07 18:44 29.11416 40.94050 40038 ft 434 kts 265°
2026-05-07 18:45 29.11777 40.87150 40042 ft 437 kts 265°
2026-05-07 18:45 29.12141 40.80177 40040 ft 438 kts 265°
2026-05-07 18:46 29.12495 40.73276 40037 ft 437 kts 265°
2026-05-07 18:46 29.12848 40.66334 40037 ft 437 kts 265°
2026-05-07 18:47 29.13198 40.59390 40043 ft 437 kts 265°
2026-05-07 18:47 29.13138 40.53669 40043 ft 432 kts 261°
2026-05-07 18:48 29.12927 40.46759 40046 ft 431 kts 261°
2026-05-07 18:48 29.12692 40.39859 40041 ft 436 kts 261°
2026-05-07 18:49 29.12467 40.32971 40044 ft 435 kts 261°
2026-05-07 18:49 29.12228 40.26037 40040 ft 436 kts 261°
2026-05-07 18:50 29.11989 40.19087 40043 ft 437 kts 261°
2026-05-07 18:50 29.11748 40.12187 40038 ft 437 kts 261°
2026-05-07 18:51 29.11501 40.05246 40026 ft 436 kts 261°
2026-05-07 18:51 29.11251 39.98319 40023 ft 436 kts 261°
2026-05-07 18:52 29.10999 39.91380 40018 ft 435 kts 261°
2026-05-07 18:52 29.11006 39.84426 40016 ft 438 kts 263°
2026-05-07 18:53 29.11026 39.77444 40024 ft 439 kts 263°
2026-05-07 18:53 29.11056 39.70462 40024 ft 439 kts 263°
2026-05-07 18:54 29.11073 39.63513 40024 ft 441 kts 263°
2026-05-07 18:54 29.11092 39.56493 40031 ft 443 kts 264°
2026-05-07 18:55 29.11106 39.49433 40025 ft 443 kts 264°
2026-05-07 18:55 29.11116 39.42397 40021 ft 442 kts 264°
2026-05-07 18:56 29.11122 39.35357 40019 ft 442 kts 264°
2026-05-07 18:56 29.11125 39.28305 40009 ft 444 kts 264°
2026-05-07 18:57 29.11124 39.21269 40011 ft 445 kts 264°
2026-05-07 18:57 29.11120 39.14183 40011 ft 445 kts 264°
2026-05-07 18:58 29.11110 39.07086 40005 ft 448 kts 265°
2026-05-07 18:58 29.11100 38.99951 40004 ft 447 kts 265°
2026-05-07 18:59 29.11083 38.92873 40001 ft 447 kts 264°
2026-05-07 18:59 29.11056 38.85761 40008 ft 448 kts 265°
2026-05-07 19:00 29.11026 38.78606 40004 ft 450 kts 265°
2026-05-07 19:00 29.10992 38.71491 40006 ft 449 kts 265°
2026-05-07 19:01 29.10954 38.64359 40013 ft 448 kts 265°
2026-05-07 19:01 29.10911 38.57197 40009 ft 451 kts 265°
2026-05-07 19:02 29.10866 38.50018 40008 ft 451 kts 265°
2026-05-07 19:02 29.10816 38.42845 40010 ft 451 kts 265°
2026-05-07 19:03 29.10763 38.35673 40008 ft 450 kts 265°
2026-05-07 19:03 29.10705 38.28560 40005 ft 450 kts 265°
2026-05-07 19:04 29.10644 38.21418 40003 ft 449 kts 265°
2026-05-07 19:04 29.10578 38.14249 40001 ft 452 kts 265°
2026-05-07 19:05 29.10509 38.07047 40002 ft 453 kts 265°
2026-05-07 19:05 29.10436 37.99837 39991 ft 452 kts 265°
2026-05-07 19:06 29.10358 37.92668 39997 ft 451 kts 266°
2026-05-07 19:06 29.10236 37.81891 40001 ft 454 kts 266°
2026-05-07 19:07 29.10148 37.74661 40005 ft 454 kts 266°
2026-05-07 19:07 29.10056 37.67421 40000 ft 456 kts 266°
2026-05-07 19:08 29.09962 37.60155 40003 ft 457 kts 266°
2026-05-07 19:08 29.09862 37.52894 40001 ft 456 kts 266°
2026-05-07 19:09 29.09786 37.45673 40012 ft 457 kts 267°
2026-05-07 19:09 29.09750 37.38385 40009 ft 459 kts 267°
2026-05-07 19:10 29.09683 37.31078 39996 ft 459 kts 267°
2026-05-07 19:10 29.09626 37.23784 39998 ft 457 kts 266°
2026-05-07 19:11 29.09557 37.16502 40005 ft 459 kts 267°
2026-05-07 19:11 29.09490 37.09197 40002 ft 460 kts 267°
2026-05-07 19:12 29.09415 37.01928 40006 ft 460 kts 267°
2026-05-07 19:12 29.09338 36.94601 39998 ft 461 kts 267°
2026-05-07 19:13 29.09256 36.87288 39989 ft 459 kts 267°
2026-05-07 19:13 29.09171 36.80002 39981 ft 457 kts 267°
2026-05-07 19:14 29.09082 36.72745 39977 ft 457 kts 268°
2026-05-07 19:14 29.08989 36.65451 39976 ft 460 kts 268°
2026-05-07 19:15 29.08892 36.58161 39963 ft 460 kts 268°
2026-05-07 19:15 29.08790 36.50851 39964 ft 459 kts 268°
2026-05-07 19:16 29.08653 36.43552 39962 ft 459 kts 267°
2026-05-07 19:16 29.08423 36.36245 39959 ft 460 kts 267°
2026-05-07 19:17 29.08241 36.28927 39960 ft 460 kts 267°
2026-05-07 19:17 29.08028 36.21657 39965 ft 461 kts 267°
2026-05-07 19:18 29.07824 36.14314 39966 ft 462 kts 267°
2026-05-07 19:18 29.07608 36.06966 39966 ft 461 kts 267°
2026-05-07 19:19 29.07393 35.99640 39972 ft 461 kts 267°
2026-05-07 19:19 29.07172 35.92310 39963 ft 460 kts 267°
2026-05-07 19:20 29.06950 35.85063 39968 ft 458 kts 267°
2026-05-07 19:20 29.06722 35.77771 39972 ft 459 kts 267°
2026-05-07 19:21 29.06490 35.70459 39981 ft 461 kts 267°
2026-05-07 19:21 29.06253 35.63130 39985 ft 462 kts 267°
2026-05-07 19:22 29.06014 35.55826 39996 ft 463 kts 267°
2026-05-07 19:22 29.05768 35.48478 40002 ft 462 kts 268°
2026-05-07 19:23 29.05519 35.41118 39995 ft 463 kts 268°
2026-05-07 19:23 29.05265 35.33756 40002 ft 463 kts 268°
2026-05-07 19:24 29.05009 35.26445 39997 ft 463 kts 267°
2026-05-07 19:24 29.04748 35.19089 39977 ft 463 kts 268°
2026-05-07 19:25 29.04482 35.11744 39969 ft 462 kts 268°
2026-05-07 19:25 29.04213 35.04403 39972 ft 461 kts 268°
2026-05-07 19:26 29.03942 34.97124 39970 ft 461 kts 268°
2026-05-07 19:26 29.03666 34.89795 39963 ft 462 kts 268°
2026-05-07 19:27 29.03453 34.82452 39980 ft 462 kts 270°
2026-05-07 19:27 29.03317 34.75097 39982 ft 463 kts 269°
2026-05-07 19:28 29.03418 34.67752 40004 ft 461 kts 279°
2026-05-07 19:28 29.05105 34.60714 40003 ft 461 kts 288°
2026-05-07 19:29 29.07149 34.53768 40008 ft 461 kts 288°
2026-05-07 19:29 29.09169 34.46873 40027 ft 460 kts 289°
2026-05-07 19:30 29.11197 34.39944 40034 ft 458 kts 289°
2026-05-07 19:30 29.13211 34.33043 40031 ft 457 kts 289°
2026-05-07 19:31 29.15223 34.26138 40052 ft 458 kts 289°
2026-05-07 19:31 29.17234 34.19218 40059 ft 458 kts 289°
2026-05-07 19:32 29.19236 34.12317 40061 ft 456 kts 289°
2026-05-07 19:32 29.21230 34.05430 40063 ft 455 kts 289°
2026-05-07 19:33 29.23208 33.98581 40071 ft 457 kts 289°
2026-05-07 19:33 29.25201 33.91666 40079 ft 457 kts 289°
2026-05-07 19:34 29.27185 33.84776 40071 ft 454 kts 289°
2026-05-07 19:34 29.29160 33.77898 40070 ft 455 kts 289°
2026-05-07 19:35 29.31124 33.71043 40074 ft 456 kts 289°
2026-05-07 19:35 29.33102 33.64124 40086 ft 456 kts 289°
2026-05-07 19:36 29.35070 33.57227 40080 ft 454 kts 289°
2026-05-07 19:36 29.36696 33.51516 40075 ft 453 kts 289°
2026-05-07 19:37 29.38652 33.44633 40075 ft 455 kts 289°
2026-05-07 19:37 29.40615 33.37710 40080 ft 456 kts 289°
2026-05-07 19:38 29.42569 33.30802 40047 ft 453 kts 289°
2026-05-07 19:38 29.43532 33.27390 39641 ft 447 kts 289°
2026-05-07 19:38 29.44491 33.23992 39035 ft 447 kts 290°
2026-05-07 19:39 29.45448 33.20598 38394 ft 445 kts 290°
2026-05-07 19:39 29.46390 33.17252 37819 ft 441 kts 290°
2026-05-07 19:39 29.47333 33.13895 37199 ft 439 kts 290°
2026-05-07 19:39 29.48276 33.10541 36578 ft 440 kts 290°
2026-05-07 19:40 29.49210 33.07218 35962 ft 446 kts 291°
2026-05-07 19:40 29.50170 33.03799 35288 ft 453 kts 291°
2026-05-07 19:40 29.51138 33.00337 34582 ft 457 kts 291°
2026-05-07 19:40 29.52115 32.96841 33830 ft 460 kts 291°
2026-05-07 19:41 29.53096 32.93329 33062 ft 461 kts 291°
2026-05-07 19:41 29.54077 32.89816 32269 ft 461 kts 291°
2026-05-07 19:41 29.55056 32.86303 31455 ft 462 kts 291°
2026-05-07 19:41 29.56026 32.82820 30637 ft 462 kts 291°
2026-05-07 19:42 29.57000 32.79317 29776 ft 460 kts 290°
2026-05-07 19:42 29.57966 32.75837 28979 ft 454 kts 290°
2026-05-07 19:42 29.58923 32.72388 28201 ft 449 kts 290°
2026-05-07 19:42 29.59864 32.68991 27423 ft 444 kts 289°
2026-05-07 19:43 29.60657 32.65583 26664 ft 439 kts 287°
2026-05-07 19:43 29.61428 32.62201 25911 ft 435 kts 287°
2026-05-07 19:43 29.62196 32.58867 25174 ft 431 kts 287°
2026-05-07 19:43 29.62952 32.55544 24442 ft 428 kts 286°
2026-05-07 19:44 29.63698 32.52233 23714 ft 424 kts 286°
2026-05-07 19:44 29.64424 32.49018 22974 ft 420 kts 286°
2026-05-07 19:44 29.65154 32.45796 22253 ft 414 kts 286°
2026-05-07 19:44 29.65873 32.42619 21555 ft 408 kts 286°
2026-05-07 19:45 29.66581 32.39476 20890 ft 405 kts 286°
2026-05-07 19:45 29.67288 32.36338 20190 ft 405 kts 286°
2026-05-07 19:45 29.67994 32.33205 19510 ft 403 kts 286°
2026-05-07 19:45 29.68691 32.30102 18839 ft 398 kts 286°
2026-05-07 19:46 29.69380 32.27034 18156 ft 394 kts 286°
2026-05-07 19:46 29.70062 32.23995 17513 ft 391 kts 286°
2026-05-07 19:46 29.70729 32.21017 17529 ft 384 kts 286°
2026-05-07 19:46 29.71412 32.17973 17157 ft 400 kts 286°
2026-05-07 19:47 29.72105 32.14880 15947 ft 409 kts 286°
2026-05-07 19:47 29.72814 32.11694 14841 ft 412 kts 285°
2026-05-07 19:47 29.73520 32.08516 14155 ft 404 kts 286°
2026-05-07 19:47 29.74209 32.05421 13466 ft 395 kts 286°
2026-05-07 19:48 29.74874 32.02434 12799 ft 376 kts 286°
2026-05-07 19:48 29.75506 31.99587 12152 ft 357 kts 286°
2026-05-07 19:48 29.76106 31.96888 12032 ft 337 kts 286°
2026-05-07 19:48 29.76675 31.94320 11610 ft 326 kts 286°
2026-05-07 19:49 29.77220 31.91868 11151 ft 312 kts 286°
2026-05-07 19:49 29.77744 31.89496 10971 ft 297 kts 286°
2026-05-07 19:49 29.78246 31.87232 10957 ft 290 kts 287°
2026-05-07 19:49 29.78920 31.85070 10656 ft 287 kts 293°
2026-05-07 19:50 29.79614 31.82896 10426 ft 284 kts 291°
2026-05-07 19:50 29.80280 31.80780 10166 ft 283 kts 292°
2026-05-07 19:50 29.80965 31.78651 9895 ft 281 kts 292°
2026-05-07 19:50 29.81647 31.76535 9642 ft 279 kts 292°
2026-05-07 19:51 29.82316 31.74459 9343 ft 276 kts 292°
2026-05-07 19:51 29.82976 31.72397 8910 ft 272 kts 293°
2026-05-07 19:51 29.83631 31.70356 8384 ft 272 kts 294°
2026-05-07 19:51 29.84289 31.68310 8043 ft 273 kts 294°
2026-05-07 19:52 29.84941 31.66276 7988 ft 269 kts 294°
2026-05-07 19:52 29.85598 31.64231 7917 ft 272 kts 293°
2026-05-07 19:52 29.86234 31.62237 7386 ft 273 kts 293°
2026-05-07 19:52 29.86898 31.60156 6893 ft 275 kts 293°
2026-05-07 19:53 29.87554 31.58099 6756 ft 269 kts 294°
2026-05-07 19:53 29.88203 31.56077 6655 ft 272 kts 294°
2026-05-07 19:53 29.88859 31.54035 6485 ft 270 kts 293°
2026-05-07 19:53 29.89487 31.52057 6249 ft 256 kts 292°
2026-05-07 19:54 29.90096 31.50135 5968 ft 253 kts 293°
2026-05-07 19:54 29.90696 31.48256 5636 ft 248 kts 294°
2026-05-07 19:54 29.91290 31.46396 5316 ft 245 kts 294°
2026-05-07 19:54 29.91869 31.44578 5057 ft 238 kts 294°
2026-05-07 19:55 29.92427 31.42822 4881 ft 233 kts 294°
2026-05-07 19:55 29.92984 31.41074 4740 ft 233 kts 295°
2026-05-07 19:55 29.93548 31.39305 4493 ft 235 kts 295°
2026-05-07 19:55 29.94099 31.37565 4182 ft 228 kts 295°
2026-05-07 19:56 29.94646 31.35842 3886 ft 227 kts 295°
2026-05-07 19:56 29.95184 31.34150 3708 ft 221 kts 295°
2026-05-07 19:56 29.95693 31.32533 3561 ft 208 kts 296°
2026-05-07 19:56 29.96186 31.30981 3417 ft 205 kts 296°
2026-05-07 19:57 29.96681 31.29430 3276 ft 206 kts 296°
2026-05-07 19:57 29.97331 31.28006 3071 ft 195 kts 320°
2026-05-07 19:57 29.98410 31.27213 2954 ft 183 kts 346°
2026-05-07 19:57 29.99669 31.27112 2866 ft 177 kts 15°
2026-05-07 19:58 30.00684 31.27834 2775 ft 172 kts 39°
2026-05-07 19:58 30.01529 31.28704 2759 ft 153 kts 47°
2026-05-07 19:58 30.02204 31.29566 2642 ft 139 kts 46°
2026-05-07 19:58 30.02816 31.30365 2493 ft 130 kts 48°
2026-05-07 19:59 30.03405 31.31148 2497 ft 129 kts 49°
2026-05-07 19:59 30.04003 31.31938 2362 ft 133 kts 48°
2026-05-07 19:59 30.04617 31.32742 2093 ft 137 kts 48°
2026-05-07 19:59 30.05258 31.33574 1926 ft 139 kts 47°
2026-05-07 20:00 30.05885 31.34432 1769 ft 141 kts 48°
2026-05-07 20:00 30.06551 31.35258 1578 ft 138 kts 46°
2026-05-07 20:00 30.07148 31.36080 1284 ft 131 kts 49°
2026-05-07 20:00 30.07735 31.36849 1104 ft 126 kts 45°
2026-05-07 20:01 30.08316 31.37612 947 ft 127 kts 47°
2026-05-07 20:01 30.08896 31.38388 731 ft 129 kts 46°
2026-05-07 20:01 30.09486 31.39188 584 ft 133 kts 45°
2026-05-07 20:01 30.10107 31.40011 402 ft 137 kts 47°
2026-05-07 20:02 30.10658 31.40741 379 ft 91 kts 50°
2026-05-07 20:02 30.10934 31.41106 379 ft 54 kts 50°
2026-05-07 20:02 30.11161 31.41412 379 ft 46 kts 49°
2026-05-07 20:02 30.11362 31.41579 380 ft 24 kts 22°
2026-05-07 20:03 30.11488 31.41623 380 ft 0 kts 11°
2026-05-07 20:03 30.11492 31.41624 380 ft 2 kts 11°
2026-05-07 20:03 30.11525 31.41625 380 ft 8 kts 352°
2026-05-07 20:04 30.11561 31.41591 380 ft 6 kts 295°
2026-05-07 20:04 30.11546 31.41527 380 ft 13 kts 232°
2026-05-07 20:04 30.11471 31.41424 380 ft 20 kts 229°
2026-05-07 20:04 30.11382 31.41308 380 ft 20 kts 228°
2026-05-07 20:05 30.11300 31.41200 380 ft 18 kts 229°
2026-05-07 20:05 30.11219 31.41091 380 ft 18 kts 229°
2026-05-07 20:05 30.11138 31.40982 380 ft 16 kts 229°
2026-05-07 20:05 30.11066 31.40882 380 ft 16 kts 245°
2026-05-07 20:06 30.11085 31.40772 380 ft 14 kts 265°
2026-05-07 20:06 30.11025 31.40675 380 ft 16 kts 229°
2026-05-07 20:06 30.10947 31.40568 380 ft 18 kts 229°
2026-05-07 20:06 30.10858 31.40453 380 ft 20 kts 229°
2026-05-07 20:07 30.10771 31.40339 380 ft 19 kts 229°
2026-05-07 20:07 30.10685 31.40224 380 ft 19 kts 230°
2026-05-07 20:07 30.10593 31.40103 380 ft 20 kts 228°
2026-05-07 20:07 30.10504 31.39985 380 ft 15 kts 232°
2026-05-07 20:08 30.10492 31.39903 380 ft 13 kts 292°
2026-05-07 20:08 30.10563 31.39851 380 ft 13 kts 342°
2026-05-07 20:08 30.10651 31.39823 380 ft 13 kts 345°
2026-05-07 20:08 30.10742 31.39795 380 ft 14 kts 345°
2026-05-07 20:09 30.10832 31.39787 380 ft 10 kts 32°
2026-05-07 20:09 30.10850 31.39823 380 ft 5 kts 73°
2026-05-07 20:09 30.10856 31.39848 380 ft 0 kts 75°